RH
12 14 14 14 12 11 10 10 9 8 7 7 5 4 2 2 1 1 5 67 86 89 100 90 52 40 44 60 68 76 81 71 85 73 56 24 22 34 52 61 75 75 69 63 56 46 67
12 15 16 16 15 12 11 10 10 9 11 14 8 7 5 2 2 1 2 26 89 90 99 94 75 40 46 65 94 79 99 76 78 76 81 69 59 75 86 85 80 81 81 72 53 62 41
12 15 17 17 14 13 11 8 12 63 98 90 73 37 13 6 3 2 2 26 100 95 95 98 87 46 46 58 89 70 99 83 80 85 84 91 99 77 93 90 92 85 84 75 51 31 38
12 15 18 17 14 11 8 7 44 98 99 98 81 86 66 31 12 5 2 32 91 100 99 99 98 58 42 56 62 71 82 91 90 96 92 98 98 98 88 92 85 76 78 78 46 48 42
12 16 18 15 12 8 7 30 98 97 98 91 86 86 82 58 47 45 7 4 63 98 99 90 99 67 46 41 64 74 77 83 90 94 93 100 99 99 100 94 93 88 77 66 62 62 65
13 18 17 14 9 8 32 99 96 94 91 84 83 82 78 58 82 86 75 14 37 66 99 99 99 81 47 35 52 77 79 77 81 94 100 100 100 97 94 95 84 75 74 67 61 63 65
15 19 16 11 10 34 94 94 89 87 84 82 80 78 72 69 89 92 97 75 84 87 99 97 96 83 51 32 41 59 84 81 84 81 100 100 100 98 85 84 80 78 72 68 62 59 62
19 18 14 12 64 98 96 92 90 87 77 78 85 90 80 91 83 82 96 82 99 100 98 98 97 100 65 42 41 58 82 86 95 98 100 100 93 79 86 82 78 78 78 77 71 64 64
20 17 11 18 94 96 94 90 84 80 80 84 91 85 84 85 71 82 84 70 97 97 98 98 94 81 54 50 46 51 81 91 97 99 98 99 86 72 78 88 80 79 85 81 75 70 68
19 16 9 33 77 93 89 83 84 86 73 77 69 85 97 97 90 76 76 62 96 98 98 98 98 96 57 72 59 78 86 99 100 99 100 98 97 92 86 95 90 89 79 79 78 79 72
19 13 8 47 94 90 92 87 84 64 51 51 71 93 92 96 96 84 78 72 97 97 99 99 99 99 66 75 61 83 100 100 98 94 98 93 94 99 91 77 87 84 85 81 79 83 88
18 11 7 68 95 92 88 80 78 55 47 47 68 83 89 94 98 81 78 98 97 96 97 98 98 98 81 98 80 78 100 100 98 98 94 98 93 86 87 76 83 90 90 77 85 86 92
17 10 9 59 90 95 81 83 46 38 39 49 58 80 90 89 92 70 80 100 94 97 97 100 99 100 92 100 95 79 99 98 90 95 99 98 97 92 74 83 74 98 91 88 96 96 89
16 8 8 67 100 85 36 66 34 34 36 37 51 84 85 79 69 71 74 84 95 94 98 99 99 100 100 100 95 98 96 98 100 84 87 96 89 85 68 76 88 91 88 76 78 80 66
15 7 6 55 99 67 21 22 23 26 27 28 64 84 92 84 75 75 78 84 96 96 98 99 98 99 99 97 96 98 100 98 97 96 92 88 87 89 93 80 92 96 96 70 89 68 76
15 7 3 39 45 47 20 16 18 30 52 96 91 76 92 90 76 81 84 86 97 94 89 90 95 94 95 96 90 96 96 93 97 91 92 90 85 86 95 97 94 98 78 93 93 95 78
15 6 3 6 34 26 12 13 34 88 98 99 78 95 81 88 94 99 87 96 98 93 98 97 77 95 92 92 91 88 90 90 97 96 87 94 92 90 97 90 72 90 96 92 96 93 92
15 7 3 2 10 15 23 41 89 97 99 81 85 99 84 81 87 76 93 98 98 97 93 96 91 88 90 85 90 89 83 91 86 100 98 95 92 91 86 74 78 90 84 90 88 74 72
16 8 3 1 5 19 54 66 97 100 82 72 65 91 98 62 90 96 99 98 99 98 88 90 92 88 90 95 91 92 88 89 98 93 94 91 93 94 89 86 85 83 81 86 91 88 90
18 9 5 1 3 21 53 68 91 81 87 74 77 95 100 79 68 95 98 95 96 96 93 77 82 89 89 95 89 90 91 88 71 90 96 92 92 76 77 76 82 89 82 84 92 98 89
19 10 7 1 2 18 57 59 72 85 86 63 68 80 76 80 92 97 99 96 96 81 72 81 94 92 89 92 92 93 98 83 84 79 93 97 99 88 73 64 74 88 84 82 99 92 99
21 13 9 2 1 19 55 54 55 69 84 77 55 46 55 68 85 89 89 93 96 74 86 75 87 96 92 88 86 87 96 97 92 92 91 97 87 86 82 80 80 86 80 93 100 99 100
24 17 9 7 1 4 42 50 50 68 74 68 52 37 44 64 84 89 96 84 82 77 75 68 80 84 96 96 90 81 92 98 93 91 85 96 90 94 92 75 82 95 90 98 95 100 99
26 20 13 10 5 1 10 49 48 66 70 69 71 66 71 95 93 98 90 78 76 75 66 72 74 89 91 91 87 82 81 84 89 93 85 96 91 98 94 82 92 84 85 97 96 86 91
27 24 17 12 10 4 1 24 46 53 59 75 75 70 64 74 86 97 84 92 72 68 68 85 86 98 89 88 88 95 95 90 91 96 96 98 99 97 98 98 73 83 90 92 96 87 94
27 27 22 15 13 11 4 1 13 41 51 67 76 80 91 100 95 99 79 83 80 87 79 84 81 87 86 83 85 87 75 96 98 97 98 100 100 100 99 96 90 84 77 80 85 93 79
26 27 26 20 15 13 10 3 1 16 45 62 82 92 87 100 99 100 96 89 87 85 92 96 84 88 91 89 91 90 84 84 80 94 95 100 100 100 100 96 78 67 73 79 83 73 73
26 27 28 24 19 15 12 8 3 1 15 50 75 93 98 86 100 76 92 97 75 73 98 94 89 92 98 92 90 84 87 92 87 83 95 88 94 91 97 87 88 74 76 82 73 74 72
26 26 27 27 21 17 13 12 6 2 1 10 55 74 98 95 87 90 79 58 60 75 100 93 93 97 94 97 94 93 96 98 94 92 88 85 85 92 78 77 75 78 76 69 68 68 68
Wind_Speed
32 34 34 35 37 38 38 38 37 36 35 37 35 29 25 27 30 30 32 31 30 24 28 23 22 20 19 21 20 13 8 13 19 18 18 21 23 21 18 15 16 20 20 21 19 30 27
35 37 39 41 42 43 45 47 47 46 45 37 39 37 31 28 30 32 33 33 31 25 23 22 22 21 21 22 21 19 16 10 17 20 18 16 16 14 11 13 16 9 19 22 20 23 31
38 40 42 43 44 45 48 51 50 42 33 34 29 27 27 28 29 31 35 32 31 31 28 25 21 22 25 20 22 24 19 13 18 20 22 16 19 22 23 17 18 25 20 18 24 27 29
40 41 43 44 46 48 49 50 45 32 36 38 31 26 23 27 31 29 32 36 38 30 25 21 21 23 27 25 25 18 21 16 15 20 21 22 19 20 18 17 13 15 15 19 15 12 18
41 45 46 45 47 48 48 45 33 36 39 40 36 29 24 27 29 27 29 36 38 32 28 25 25 24 24 25 25 21 19 25 15 15 21 21 19 21 21 16 10 10 12 14 11 12 12
42 46 47 49 49 49 44 31 32 34 35 33 30 29 25 24 22 15 18 29 31 41 25 28 26 21 26 25 25 21 20 23 25 22 19 18 19 20 20 16 10 10 16 14 14 11 15
45 47 49 51 51 46 33 33 33 33 31 29 26 25 23 21 21 20 13 15 26 34 31 33 22 25 15 28 22 23 21 21 21 25 22 18 19 20 17 14 15 13 13 10 10 9 18
46 49 52 54 45 36 36 35 34 32 29 25 23 21 18 16 15 14 16 18 25 30 33 33 17 22 24 12 21 23 22 23 21 21 16 20 25 24 16 14 15 16 16 18 19 16 19
47 51 53 50 37 36 36 35 33 29 23 22 21 19 18 18 16 12 17 22 31 27 20 35 28 22 22 18 20 21 25 22 22 23 22 16 6 21 20 17 18 15 14 16 18 18 25
48 52 53 47 38 35 34 33 29 26 24 23 17 16 19 15 12 9 10 23 35 20 13 28 27 25 17 22 12 16 23 21 20 22 19 18 13 11 13 17 12 8 9 13 13 12 6
49 52 52 44 37 34 33 33 29 26 25 17 15 19 21 27 16 9 7 11 28 16 6 23 29 18 21 21 21 20 22 24 20 20 22 12 16 15 14 13 11 10 15 14 13 11 18
49 53 52 40 36 34 35 34 30 22 13 12 17 26 35 21 12 9 13 8 23 3 2 15 29 23 29 19 18 23 26 22 19 13 20 12 13 13 12 9 16 12 12 10 8 8 7
50 53 52 40 33 33 30 25 22 15 13 16 26 34 17 10 5 12 13 10 8 4 23 18 30 30 31 22 20 25 29 25 17 16 18 20 15 17 15 12 11 12 4 1 4 4 7
49 52 52 38 30 30 27 20 15 13 15 20 34 27 7 9 17 15 21 28 6 8 6 17 30 28 23 25 18 20 22 24 20 13 6 15 7 21 16 26 9 14 13 5 5 3 4
48 51 52 38 31 27 23 20 17 15 18 22 23 8 8 9 12 21 20 23 5 11 17 25 26 28 19 23 15 21 22 23 24 19 10 8 4 5 6 10 16 9 19 15 9 17 9
47 52 53 40 31 26 20 21 19 21 23 21 13 9 12 10 20 24 23 9 7 9 18 28 15 15 18 28 14 19 18 12 16 23 15 5 2 4 10 8 16 12 6 6 8 3 5
46 51 53 41 29 27 23 21 21 23 20 15 8 13 12 13 15 18 16 7 14 24 12 5 12 13 14 28 10 19 12 3 19 17 18 8 5 5 15 14 17 24 21 11 7 9 4
44 49 51 41 28 27 25 20 24 24 16 11 14 15 11 18 14 15 17 5 18 18 14 14 9 9 18 25 12 14 13 1 13 10 23 13 5 9 18 8 6 19 18 24 10 8 15
42 47 49 40 28 26 25 22 29 24 14 16 16 20 14 19 11 15 17 18 18 17 10 10 11 6 20 20 11 8 10 11 19 16 14 17 6 3 1 3 16 18 18 23 29 31 33
39 43 48 40 27 24 21 21 27 20 14 13 18 15 17 16 17 13 19 15 15 14 12 11 14 16 15 10 5 10 11 10 12 18 15 9 9 11 8 5 7 13 21 25 28 25 32
35 39 45 42 28 23 19 19 19 23 15 10 15 14 16 14 8 15 16 19 16 11 13 13 11 14 12 7 8 8 8 9 11 16 17 15 9 15 21 22 22 24 27 27 31 39 37
31 35 39 41 29 22 18 16 18 19 19 8 10 16 15 13 6 13 15 12 11 10 10 9 8 8 11 7 5 8 8 5 5 9 12 13 9 13 27 8 6 21 24 22 25 24 28
27 31 34 38 35 22 18 14 14 14 17 14 10 11 11 13 11 6 1 5 5 5 3 3 7 5 7 8 7 3 11 10 6 8 9 10 9 10 8 11 24 10 7 13 13 16 19
24 27 31 33 35 28 16 12 8 7 8 9 5 5 12 13 16 5 6 4 2 2 5 2 5 6 4 2 4 1 7 8 10 13 12 12 11 11 11 14 2 4 20 17 19 9 12
21 23 26 29 31 31 21 10 9 10 8 6 6 8 10 14 13 8 7 4 5 8 5 2 2 5 3 3 1 2 1 4 4 7 13 14 14 6 4 8 17 4 11 22 17 9 19
19 20 23 25 28 30 28 17 9 12 12 5 2 3 10 11 12 6 10 5 4 1 8 4 2 3 4 1 3 2 2 1 3 2 6 13 14 17 5 4 3 2 15 21 14 6 23
19 19 20 23 23 27 28 25 15 11 12 11 7 6 10 16 15 15 10 11 12 7 7 5 3 3 5 6 4 3 3 4 2 4 7 8 10 18 14 7 11 5 16 15 5 11 18
18 19 20 22 21 22 26 28 22 14 16 16 14 9 11 17 14 17 18 13 14 8 5 3 1 1 3 5 2 3 4 4 5 7 5 5 6 7 8 6 7 9 18 9 14 14 12
16 18 20 22 21 20 23 26 28 22 17 23 22 21 15 15 14 17 23 23 15 14 12 7 5 2 3 4 5 4 4 5 6 5 8 9 11 4 8 5 8 14 16 14 14 14 9
Wind_Direction
340 340 338 337 336 332 329 326 320 314 308 305 301 294 280 278 274 263 250 241 239 244 259 255 249 240 232 232 225 221 235 225 216 218 231 220 217 214 211 210 226 243 237 240 243 222 244
338 337 340 339 336 333 329 326 322 317 311 301 297 294 287 271 262 258 248 236 231 234 251 247 247 239 229 224 222 226 247 244 209 208 217 208 196 204 217 209 227 246 246 246 227 247 246
336 339 340 337 333 332 329 324 320 317 312 312 309 299 287 277 262 252 243 234 224 229 239 237 242 238 232 220 223 223 226 238 203 202 206 199 199 199 208 202 208 221 245 251 243 247 255
337 338 337 337 333 330 324 319 316 310 303 307 306 301 283 275 267 252 239 224 219 225 235 234 231 237 235 219 225 223 219 207 194 197 204 207 208 203 220 227 245 255 259 262 277 260 260
337 335 337 335 331 326 321 317 310 302 302 307 308 306 305 296 293 284 241 224 221 217 220 238 229 229 235 226 222 215 212 211 207 191 195 207 215 213 217 230 240 255 248 259 256 259 243
336 335 336 334 331 329 327 319 313 309 313 313 311 310 308 299 293 282 263 227 217 218 213 213 210 214 227 224 216 212 210 213 215 192 191 205 197 220 216 222 207 235 246 265 254 227 251
337 336 336 334 335 336 330 321 318 318 318 316 315 312 307 292 287 272 262 244 191 217 222 201 204 212 217 221 209 207 206 211 207 209 215 216 201 195 221 228 228 256 284 282 235 241 262
338 337 338 338 341 331 327 325 323 321 322 320 316 320 316 303 294 266 253 208 176 203 208 195 188 195 215 217 212 200 197 200 201 191 194 213 221 225 210 213 226 240 258 266 275 280 280
339 339 340 340 337 329 329 329 328 327 330 323 324 322 310 303 297 263 262 203 200 189 186 189 188 201 209 204 208 203 196 200 196 194 207 211 234 220 208 220 228 228 241 255 268 281 275
341 342 341 344 341 335 336 335 335 332 332 326 330 327 319 314 321 278 255 208 196 145 158 182 179 200 185 189 194 181 190 184 188 200 205 223 214 238 217 217 223 241 248 251 263 284 278
343 342 345 346 341 342 339 339 338 330 327 321 326 328 329 328 320 270 217 221 194 150 153 177 178 199 179 173 199 183 173 192 194 196 200 217 217 235 223 221 214 237 256 254 259 265 289
343 343 349 348 340 344 340 342 342 339 339 327 330 332 321 312 267 178 183 194 205 130 162 151 177 172 171 174 177 173 170 188 178 191 213 216 221 218 235 232 209 222 239 285 294 285 259
344 344 351 348 342 343 345 346 0 7 342 337 342 336 333 315 162 164 178 154 194 233 151 151 168 171 175 168 176 179 180 189 178 180 201 213 240 244 227 209 222 211 182 248 229 206 237
345 348 352 348 344 346 348 347 359 355 340 339 341 337 14 102 137 154 160 153 229 167 148 157 165 163 166 171 188 175 193 195 194 176 159 205 223 234 245 221 200 213 205 228 269 235 304
347 352 352 350 347 346 354 348 350 345 337 337 344 22 78 130 139 159 160 179 243 138 147 138 147 149 160 170 175 185 195 204 208 189 190 194 229 226 255 184 182 188 210 233 285 289 268
349 356 353 350 352 349 357 347 347 343 342 350 1 51 89 115 148 152 166 204 324 115 148 135 138 163 172 171 172 182 189 226 202 210 167 195 196 220 216 194 203 217 187 187 206 258 261
351 358 354 355 357 358 0 353 351 348 356 0 47 105 112 123 138 157 172 215 102 114 104 129 160 146 170 172 168 178 198 256 194 206 188 204 188 184 208 224 222 209 216 218 233 227 235
355 359 355 359 3 9 9 11 1 5 15 34 102 113 106 133 136 159 183 106 119 126 102 103 110 145 160 167 165 175 194 239 187 191 192 195 215 229 245 256 249 231 245 221 223 231 231
357 360 357 2 9 14 16 17 20 26 53 67 111 111 91 145 150 159 114 118 111 93 95 86 112 140 149 138 142 150 165 207 177 180 183 201 218 249 239 153 222 237 238 246 255 260 256
358 1 360 5 12 15 19 23 39 49 50 64 117 86 100 132 151 111 103 129 113 104 99 89 109 122 143 116 123 167 188 213 187 174 188 196 230 236 248 163 285 262 260 256 251 260 265
358 1 2 7 14 16 22 26 39 48 57 80 121 85 98 111 171 81 81 119 101 99 97 98 107 114 133 146 119 158 172 167 179 195 200 212 255 255 276 279 282 278 276 279 271 272 261
358 2 4 8 12 15 23 28 32 30 45 59 112 84 97 131 122 83 118 112 93 97 99 89 123 147 129 137 170 181 182 181 199 203 211 234 271 298 299 320 305 297 301 294 292 288 283
356 1 3 9 12 12 19 18 28 51 49 52 111 120 128 137 113 82 56 133 101 69 63 128 154 154 151 186 198 204 194 197 207 229 218 236 266 290 279 314 309 292 328 325 311 298 293
354 359 360 8 13 11 13 18 11 27 49 69 90 147 157 157 146 167 195 187 163 280 351 62 175 173 221 174 161 339 205 226 242 245 254 264 266 262 289 335 285 352 328 345 334 328 323
350 357 357 0 10 13 6 5 347 332 342 24 145 173 171 165 158 204 192 194 235 289 269 187 175 179 148 173 113 66 258 289 290 245 255 251 250 273 276 296 298 350 345 333 331 334 341
340 354 353 355 1 7 9 353 318 311 312 320 133 203 194 163 164 182 202 209 222 113 190 230 262 236 230 211 110 159 225 225 226 262 234 234 251 256 274 298 282 335 325 339 333 307 347
330 343 350 346 359 355 1 357 337 287 279 282 258 213 209 193 192 180 177 208 215 226 210 254 256 254 220 199 186 198 254 225 235 233 202 182 219 236 249 264 277 313 331 335 327 324 343
323 335 343 339 349 351 348 350 342 312 269 258 253 247 218 211 193 195 189 207 214 228 198 183 277 228 172 185 207 235 243 243 266 238 238 238 197 220 209 239 269 334 328 317 319 336 334
314 326 334 330 334 343 342 342 336 323 291 256 246 238 226 224 206 212 215 222 212 211 210 205 223 197 152 182 210 235 239 244 266 277 228 232 226 236 221 267 313 307 326 313 313 326 308